Location: Le Petit-Vavre
(46.5081°N, 1.5239°E)
Time: 16:04:50
(UTC+00:00)

OBJECT-B - Visible Passes

Search period start: 16 June 2021 00:00
Search period end: 26 June 2021 00:00
Orbit: 414 x 423 km, 97.0° (Epoch: 05 June)

Date Brightness Start Highest point End Pass type
(mag) Time Alt. Az. Time Alt. Az. Time Alt. Az.
16 Jun 3.7 20:40:18 10° WSW 20:41:55 13° W 20:43:33 10° WNW visible
18 Jun 3.8 20:43:08 10° WSW 20:44:32 12° W 20:45:54 10° WNW visible
20 Jun 3.9 20:46:00 10° WSW 20:47:05 11° W 20:48:10 10° WNW visible
22 Jun 4.0 20:48:57 10° WSW 20:49:36 10° W 20:50:14 10° WNW visible
